Starlink 3246

operational
NORAD ID: 49732 Int'l Des: 2021-115 Owner: SPXS Country: US Constellation: starlink
LEOCIRCULAR

Starlink 3246について

説明を読み込み中...

リアルタイム位置

3D地球を読み込み中...

次回通過

高度履歴

Altitude vs Time

uPlot chart will show altitude changes over time

軌道要素

1 49732U 21115J 25258.20059532 -.00000166 00000-0 76563-5 0 9999
2 49732 53.2152 227.0771 0001480 86.8820 273.2341 15.08837136208897
Epoch: Sep 15, 2025 • Age: 16 hours

現在のステータス

高度 552.9 km
速度 7.58 km/s
衛星直下点 -37.96°S, 113.73°W
打ち上げ日 Dec 2, 2021
運用期間 3.7 years
タイプ internet

技術仕様

分類 Payload
質量 290.00 kg
乾燥質量 270.00 kg
総質量 290.00 kg
長さ 0.20 m
直径 2.80 m
スパン 9.00 m
形状 Box + pan
製造者 SPXS
バスタイプ Starlink
フェーズステータス In Orbit
所有者/国 SPXS/US

大規模コンステレーション

Loading constellations...